Hourly Weather Roundup
Issued by NWS Central Illinois

Home | Current Version | Previous Version | Text Only | Print | Product List | Glossary On
Versions: 1 2 3 4 5 6 7 8 9 10 11 12 13 14 15 16 17 18 19 20 21 22 23 24 25 26 27 28 29 30 31 32 33 34 35 36 37 38 39 40 41 42 43 44 45 46 47 48 49 50
000
NZUS43 KILX 031310
HWRILX

AREA WEATHER ROUNDUP
NATIONAL WEATHER SERVICE, LINCOLN IL
700 AM CST SAT DEC 03 2016


CITY           SKY/WX    TMP DP  RH WIND       PRES   REMARKS
BLOOMINGTON    MOCLDY    31  26  82 N8        30.36F WCI  23
CHAMPAIGN      MOCLDY    34  28  79 N8        30.37R WCI  27
DANVILLE       CLOUDY    33  28  82 NW5       30.34R WCI  29
DECATUR        CLOUDY    35  28  75 N5        30.38R WCI  31
EFFINGHAM      CLOUDY    34  34 100 CALM      30.39S
FLORA          PTCLDY    30  28  94 CALM      30.39R
GALESBURG      CLOUDY    32  28  84 N3        30.35F
JACKSONVILLE   CLOUDY    30  28  92 NE3       30.36S
LACON          CLOUDY    32  26  77 NW5       30.37F WCI  27
LAWRENCEVILLE  CLOUDY    38  32  79 CALM      30.38R
LITCHFIELD     PTCLDY    30  29  96 CALM      30.36S
$$


CITY           SKY/WX    TMP DP  RH WIND       PRES   REMARKS
LINCOLN        CLOUDY    32  29  90 N3        30.38S
MACOMB         PTCLDY    31  30  95 CALM      30.38S
MATTOON        CLOUDY    35  30  82 CALM      30.36R
MT CARMEL AP   CLOUDY    36  33  90 CALM      30.39R
OLNEY-NOBLE AP CLEAR     32  32 100 CALM      30.39R
PARIS          CLOUDY    32  31  96 CALM      30.38R
PEORIA         CLOUDY    34  26  72 N6        30.37F WCI  29
PONTIAC        CLOUDY    33  30  87 NW7       30.38S WCI  27
RANTOUL        PTCLDY    33  29  82 NW7       30.37R WCI  27
SPRINGFIELD    PTCLDY    33  28  81 NE5       30.37S WCI  29
TAYLORVILLE    CLOUDY    32  31  96 NE3       30.37S
$$

...REGIONAL REPORTS...


CITY           SKY/WX    TMP DP  RH WIND       PRES   REMARKS
CHICAGO O`HARE CLOUDY    32  22  66 W9        30.35R WCI  24
KANKAKEE       CLOUDY    33  26  73 W5        30.37R WCI  29
MOLINE         CLOUDY    34  23  64 NW10      30.36S WCI  26
MOUNT STERLING CLOUDY    29  27  92 CALM      30.35S
MOUNT VERNON   NOT AVBL
PITTSFIELD     MOCLDY    29  28  95 CALM      30.36S
QUINCY         CLOUDY    30  29  96 E5        30.34F WCI  25
ROCKFORD       CLOUDY    32  23  69 W6        30.37S WCI  26
$$


CITY           SKY/WX    TMP DP  RH WIND       PRES   REMARKS
BURLINGTON     CLOUDY    34  29  82 NE5       30.35F WCI  30
CEDAR RAPIDS   CLOUDY    31  28  89 CALM      30.33F
DES MOINES     CLOUDY    37  27  67 CALM      30.33F
KIRKSVILLE     CLOUDY    26  25  96 NE6       30.32F WCI  19
OTTUMWA        CLOUDY    34  29  82 E6        30.32F WCI  29
ST LOUIS       CLOUDY    31  27  85 E3        30.36S
$$


CITY           SKY/WX    TMP DP  RH WIND       PRES   REMARKS
TERRE HAUTE    CLOUDY    35  27  72 CALM      30.38R
EVANSVILLE     CLOUDY    34  31  88 CALM      30.40R
INDIANAPOLIS   CLOUDY    36  27  69 W8        30.35R WCI  30
LAFAYETTE      CLOUDY    32  26  78 NW5       30.36R WCI  27
MADISON        CLOUDY    30  21  69 VRB6      30.34R WCI  24
MILWAUKEE      CLOUDY    33  22  63 W8        30.34R WCI  26
$$






USA.gov is the U.S. government's official web portal to all federal, state and local government web resources and services.